Regional Weather Roundup
Issued by NWS New Orleans/Baton Rouge, LA

Home | Current Version | Previous Version | Text Only | Print | Product List | Glossary On
Versions: 1 2 3 4 5 6 7 8 9 10 11 12 13 14 15 16 17 18 19 20 21 22 23 24 25 26 27 28 29 30 31 32 33 34 35 36 37 38 39 40 41 42 43 44 45 46 47 48 49 50
000
ASUS44 KLIX 232313
RWRLIX
NEW ORLEANS REGIONAL WEATHER ROUNDUP
NATIONAL WEATHER SERVICE NEW ORLEANS LA
500 PM CST MON JAN 23 2017

NOTE: "FAIR" INDICATES FEW OR NO CLOUDS BELOW 12,000 FEET WITH NO
      SIGNIFICANT WEATHER AND/OR OBSTRUCTIONS TO VISIBILITY.
      SKY/WX - SKY CONDITION AND SIGNIFICANT WEATHER.
      TMP - AIR TEMPERATURE.     DP    - DEWPOINT TEMPERATURE.
      RH  - RELATIVE HUMIDITY.   PRES  - PRESSURE.
      HI  - HEAT INDEX.          WCI   - WIND CHILL INDEX.

*  THESE STATIONS ARE NOT NWS OR FAA STATIONS AND ARE NOT UNDER
   NWS QUALITY CONTROL.

LAZ038-040-048-061>063-065>067-069-240000-
SOUTHEAST LOUISIANA

CITY           SKY/WX    TMP DP  RH WIND       PRES   REMARKS
N.O. AUDUBON   NOT AVBL
N.O. INTL ARPT PTCLDY    66  46  48 NW10      29.84R
N.O. LAKEFRONT CLEAR     63  54  72 W16       29.83R
N.O. DOWNTOWN*   N/A     66  47  50 NW9       29.84R
RESERVE*         N/A     67  43  41 NW9       29.85R
SLIDELL        CLEAR     66  48  52 VRB3      29.81R
BATON ROUGE    CLEAR     65  43  44 NW9       29.85R
BOOTHVILLE     CLEAR     64  49  57 W8        29.83R
BELLE CHASSE   PTCLDY    67  47  48 NW7       29.83R
BOGALUSA*        N/A     67  47  48 W6        29.83R
GALLIANO*      CLEAR     67  44  43 W8        29.84R
NEW ROADS*       N/A     63  43  49 NW6       29.87R
GONZALES*        N/A     66  42  42 NW8       29.84R
HAMMOND*       CLEAR     64  43  45 NW7       29.83R
HOUMA*         CLEAR     66  45  45 W10       29.85R
PORT FOURCHON* CLEAR     63  52  67 W13G20    29.85R

$$

MSZ070-080>082-240000-
SOUTHERN MISSISSIPPI

CITY           SKY/WX    TMP DP  RH WIND       PRES   REMARKS
MCCOMB         CLEAR     63  42  46 W9        29.84R
GULFPORT       CLEAR     67  49  52 NW10      29.79R
BILOXI         CLEAR     66  51  58 NW13      29.79R
PASCAGOULA     CLEAR     66  47  50 NW6       29.78R
STENNIS ARPT*  CLEAR     64  43  45 NW6       29.81R

$$

COASTAL OBSERVATIONS
LAKE AND NEARSHORE STATIONS

STATION/POSITION TIME  TEMP    WIND        PRES    WAVE
                       AIR SEA DIR/SP/G            HT/PER
                 (UTC) (F)     (DEG/KT/KT) (MB)    (FT/S)
PASCAGOULA       2236   68     290/ 10/ 15 1008.0
WAVELAND YACHT   2236   67 65  300/ 11/ 12 1009.1
GRAND ISLE       2236   66 65  290/ 12/ 15 1010.3
SOUTHWEST PASS   2230          310/ 12/ 22   N/A
NEW CANAL        2236   65 61  290/  5/ 11 1009.3
SHELL BEACH      2236   64 65  300/ 16/ 18 1009.6

OFFSHORE STATIONS

STATION/POSITION TIME  TEMP    WIND        PRES    WAVE
                       AIR SEA DIR/SP/G            HT/PER
                 (UTC) (F)     (DEG/KT/KT) (MB)    (FT/S)

$$




USA.gov is the U.S. government's official web portal to all federal, state and local government web resources and services.